When you browse on this site, cookies collect data to enhance your experience and personalize the content and advertising you see.
Visit our Privacy Policy to learn more. By continuing to use the site, you agree to this use of cookies and data.
  • In Italy
  • List of Countries
  • For 7 days
  • Water Temperature
  • Satellite Maps
  • Weather Map
  • Weather Widgets
  • user-avatar
    Login

    Hourly Weather Bansko

    Today, 26 May, Sunday

    Time Temperature Precipitation Wind Pressure Humidity
    00:00 +13°C° 0 mm 1 mps 720 mmHg 81%
    01:00 +13°C° 0 mm 1 mps 720 mmHg 80%
    02:00 +13°C° 0 mm 1 mps 720 mmHg 78%
    03:00 +13°C° 0 mm 1 mps 720 mmHg 77%
    04:00 +12°C° 0 mm 1 mps 720 mmHg 76%
    05:00 +12°C° 0 mm 1 mps 720 mmHg 75%
    06:00 +15°C° 0 mm 1 mps 720 mmHg 67%
    07:00 +19°C° 0 mm 1 mps 721 mmHg 60%
    08:00 +19°C° 0 mm 0 mps 721 mmHg 52%
    09:00 +23°C° 0 mm 1 mps 721 mmHg 48%
    10:00 +25°C° 0 mm 1 mps 721 mmHg 43%
    11:00 +26°C° 0 mm 1 mps 721 mmHg 39%
    12:00 +27°C° 0 mm 1 mps 721 mmHg 38%
    13:00 +27°C° 0 mm 2 mps 721 mmHg 38%
    14:00 +27°C° 0 mm 2 mps 721 mmHg 38%
    15:00 +27°C° 0 mm 2 mps 721 mmHg 41%
    16:00 +27°C° 0 mm 2 mps 721 mmHg 44%
    17:00 +26°C° 0 mm 3 mps 721 mmHg 47%
    18:00 +24°C° 0 mm 2 mps 720 mmHg 56%
    19:00 +21°C° 0 mm 2 mps 720 mmHg 65%
    20:00 +18°C° 0 mm 2 mps 720 mmHg 75%
    21:00 +18°C° 0 mm 2 mps 720 mmHg 77%
    22:00 +17°C° 0 mm 2 mps 720 mmHg 80%
    23:00 +16°C° 0 mm 2 mps 721 mmHg 82%

    Tomorrow, 27 May, Monday

    Time Temperature Precipitation Wind Pressure Humidity
    00:00 +16°C° 0 mm 2 mps 721 mmHg 83%
    01:00 +16°C° 0 mm 2 mps 720 mmHg 84%
    02:00 +16°C° 0 mm 1 mps 720 mmHg 85%
    03:00 +15°C° 0 mm 1 mps 720 mmHg 85%
    04:00 +15°C° 0 mm 1 mps 720 mmHg 85%
    05:00 +15°C° 0 mm 1 mps 720 mmHg 85%
    06:00 +18°C° 0 mm 1 mps 720 mmHg 77%
    07:00 +21°C° 0 mm 1 mps 720 mmHg 68%
    08:00 +23°C° 0 mm 1 mps 721 mmHg 59%
    09:00 +24°C° 0 mm 2 mps 721 mmHg 54%
    10:00 +26°C° 0 mm 2 mps 721 mmHg 49%
    11:00 +27°C° 0 mm 3 mps 721 mmHg 44%
    12:00 +27°C° 0 mm 3 mps 721 mmHg 45%
    13:00 +27°C° 0 mm 3 mps 720 mmHg 46%
    14:00 +27°C° 0 mm 4 mps 720 mmHg 47%
    15:00 +26°C° 0.1 mm 3 mps 720 mmHg 50%
    16:00 +26°C° 0.1 mm 3 mps 719 mmHg 54%
    17:00 +25°C° 0.1 mm 2 mps 719 mmHg 57%
    18:00 +23°C° 0 mm 2 mps 719 mmHg 62%
    19:00 +21°C° 0 mm 2 mps 719 mmHg 67%
    20:00 +19°C° 0 mm 2 mps 718 mmHg 72%
    21:00 +18°C° 0 mm 2 mps 718 mmHg 74%
    22:00 +17°C° 0 mm 2 mps 718 mmHg 76%
    23:00 +16°C° 0 mm 2 mps 718 mmHg 77%

    Day after tomorrow, 28 May, Tuesday

    Time Temperature Precipitation Wind Pressure Humidity
    00:00 +16°C° 0 mm 2 mps 718 mmHg 74%
    01:00 +16°C° 0 mm 2 mps 718 mmHg 71%
    02:00 +16°C° 0 mm 2 mps 718 mmHg 68%
    03:00 +15°C° 0 mm 2 mps 717 mmHg 66%
    04:00 +15°C° 0 mm 2 mps 717 mmHg 64%
    05:00 +15°C° 0 mm 2 mps 717 mmHg 62%
    06:00 +17°C° 0 mm 2 mps 717 mmHg 57%
    07:00 +20°C° 0 mm 2 mps 717 mmHg 52%
    08:00 +22°C° 0 mm 3 mps 717 mmHg 47%
    09:00 +24°C° 0 mm 3 mps 717 mmHg 45%
    10:00 +26°C° 0 mm 4 mps 717 mmHg 43%
    11:00 +27°C° 0 mm 5 mps 717 mmHg 40%
    12:00 +27°C° 0 mm 5 mps 716 mmHg 41%
    13:00 +27°C° 0 mm 5 mps 716 mmHg 41%
    14:00 +27°C° 0 mm 5 mps 716 mmHg 41%
    15:00 +27°C° 0.1 mm 5 mps 715 mmHg 45%
    16:00 +26°C° 0.1 mm 5 mps 715 mmHg 49%
    17:00 +25°C° 0.1 mm 4 mps 715 mmHg 52%
    18:00 +22°C° 0.5 mm 4 mps 715 mmHg 61%
    19:00 +20°C° 0.5 mm 3 mps 715 mmHg 71%
    20:00 +18°C° 0.5 mm 2 mps 715 mmHg 80%
    21:00 +17°C° 0 mm 2 mps 715 mmHg 81%
    22:00 +17°C° 0 mm 2 mps 715 mmHg 82%
    23:00 +16°C° 0 mm 2 mps 716 mmHg 84%

    29 May, Wednesday

    Time Temperature Precipitation Wind Pressure Humidity
    00:00 +16°C° 0 mm 2 mps 716 mmHg 85%
    01:00 +15°C° 0 mm 1 mps 716 mmHg 86%
    02:00 +15°C° 0 mm 1 mps 716 mmHg 87%
    03:00 +15°C° 0 mm 1 mps 716 mmHg 87%
    04:00 +14°C° 0 mm 1 mps 716 mmHg 87%
    05:00 +14°C° 0 mm 1 mps 716 mmHg 88%
    06:00 +16°C° 0 mm 1 mps 716 mmHg 79%
    07:00 +19°C° 0 mm 1 mps 717 mmHg 71%
    08:00 +22°C° 0 mm 1 mps 717 mmHg 63%
    09:00 +23°C° 0 mm 2 mps 717 mmHg 57%
    10:00 +24°C° 0 mm 2 mps 717 mmHg 52%
    11:00 +26°C° 0 mm 3 mps 718 mmHg 46%
    12:00 +26°C° 0 mm 3 mps 718 mmHg 46%
    13:00 +26°C° 0 mm 3 mps 717 mmHg 46%
    14:00 +27°C° 0 mm 3 mps 717 mmHg 45%
    15:00 +27°C° 0.1 mm 3 mps 717 mmHg 47%
    16:00 +26°C° 0.1 mm 3 mps 717 mmHg 48%
    17:00 +26°C° 0.1 mm 3 mps 717 mmHg 50%
    18:00 +24°C° 0 mm 2 mps 717 mmHg 57%
    19:00 +21°C° 0 mm 2 mps 717 mmHg 64%
    20:00 +20°C° 0 mm 1 mps 717 mmHg 71%
    21:00 +19°C° 0 mm 1 mps 718 mmHg 73%
    22:00 +18°C° 0 mm 1 mps 718 mmHg 76%
    23:00 +16°C° 0 mm 1 mps 719 mmHg 79%

    30 May, Thursday

    Time Temperature Precipitation Wind Pressure Humidity
    00:00 +16°C° 0 mm 1 mps 719 mmHg 80%
    01:00 +15°C° 0 mm 1 mps 719 mmHg 80%
    02:00 +15°C° 0 mm 1 mps 719 mmHg 81%
    03:00 +15°C° 0 mm 1 mps 719 mmHg 82%
    04:00 +15°C° 0 mm 1 mps 719 mmHg 83%
    05:00 +14°C° 0 mm 1 mps 719 mmHg 84%
    06:00 +18°C° 0 mm 1 mps 719 mmHg 76%
    07:00 +20°C° 0 mm 1 mps 720 mmHg 67%
    08:00 +23°C° 0 mm 1 mps 720 mmHg 59%
    09:00 +24°C° 0 mm 1 mps 720 mmHg 54%
    10:00 +25°C° 0 mm 1 mps 720 mmHg 50%
    11:00 +26°C° 0 mm 1 mps 720 mmHg 46%
    12:00 +27°C° 0.1 mm 2 mps 720 mmHg 44%
    13:00 +27°C° 0.1 mm 2 mps 720 mmHg 42%
    14:00 +28°C° 0.1 mm 2 mps 720 mmHg 40%
    15:00 +27°C° 0.1 mm 2 mps 720 mmHg 40%
    16:00 +27°C° 0.1 mm 2 mps 720 mmHg 41%
    17:00 +27°C° 0.1 mm 2 mps 720 mmHg 41%
    18:00 +24°C° 0.1 mm 2 mps 720 mmHg 52%
    19:00 +21°C° 0.1 mm 2 mps 720 mmHg 64%
    20:00 +18°C° 0.1 mm 2 mps 720 mmHg 75%
    21:00 +18°C° 0.2 mm 2 mps 720 mmHg 80%
    22:00 +17°C° 0.2 mm 2 mps 720 mmHg 85%
    23:00 +16°C° 0.2 mm 2 mps 721 mmHg 90%

    31 May, Friday

    Time Temperature Precipitation Wind Pressure Humidity
    00:00 +15°C° 0.1 mm 2 mps 721 mmHg 91%
    01:00 +15°C° 0.1 mm 2 mps 721 mmHg 92%
    02:00 +15°C° 0.1 mm 2 mps 720 mmHg 93%
    03:00 +15°C° 0.1 mm 2 mps 720 mmHg 94%
    04:00 +14°C° 0.1 mm 2 mps 720 mmHg 94%
    05:00 +14°C° 0.1 mm 2 mps 720 mmHg 94%
    06:00 +15°C° 0.1 mm 2 mps 721 mmHg 87%
    07:00 +16°C° 0.1 mm 3 mps 721 mmHg 80%
    08:00 +18°C° 0.1 mm 3 mps 721 mmHg 74%
    09:00 +19°C° 0.2 mm 3 mps 721 mmHg 70%
    10:00 +20°C° 0.2 mm 3 mps 721 mmHg 66%
    11:00 +20°C° 0.2 mm 3 mps 721 mmHg 62%
    12:00 +21°C° 0.6 mm 4 mps 721 mmHg 62%
    13:00 +21°C° 0.6 mm 4 mps 721 mmHg 62%
    14:00 +21°C° 0.6 mm 4 mps 721 mmHg 62%
    15:00 +20°C° 0.4 mm 4 mps 721 mmHg 65%
    16:00 +19°C° 0.4 mm 4 mps 721 mmHg 68%
    17:00 +19°C° 0.4 mm 4 mps 720 mmHg 70%
    18:00 +17°C° 0.3 mm 4 mps 721 mmHg 74%
    19:00 +16°C° 0.3 mm 3 mps 721 mmHg 77%
    20:00 +14°C° 0.3 mm 3 mps 721 mmHg 80%
    21:00 +15°C° 0.3 mm 2 mps 721 mmHg 83%
    22:00 +14°C° 0.3 mm 2 mps 721 mmHg 86%
    23:00 +13°C° 0.3 mm 2 mps 721 mmHg 88%
    Show more